SCP
0 0 1 1 1 1 1 1 1 1 2 2 2 1 1 1 1 1 1 1 1 1 1 1 1 1 1 1 1 1 1 1 1 1 0 0 0 0 0 0 0 0 0
0 0 0 1 1 1 1 1 1 1 1 1 1 1 1 1 1 1 1 1 1 1 1 1 0 0 1 1 1 1 1 1 1 1 0 0 0 0 0 0 0 0 0
0 0 0 1 1 1 1 1 1 1 1 1 1 1 1 1 1 1 1 1 0 0 1 1 0 0 0 0 0 1 1 1 1 1 1 1 1 1 1 0 0 0 0
0 0 0 1 1 1 1 1 1 1 1 1 1 1 1 1 1 1 1 1 0 0 0 0 0 1 0 0 0 0 0 1 1 1 1 1 1 1 1 1 1 1 1
0 0 0 0 1 1 1 1 1 1 1 1 1 1 1 1 1 1 1 1 1 0 0 0 1 1 1 0 0 0 0 0 1 1 1 1 1 1 1 1 1 1 1
0 0 0 0 0 0 0 1 1 1 1 1 1 1 1 1 1 1 1 1 1 1 1 1 1 1 1 1 0 0 0 0 1 1 1 1 1 1 1 1 1 1 1
0 0 0 0 0 0 0 0 1 1 1 1 1 1 1 1 1 1 1 1 1 1 1 1 1 1 1 1 1 1 1 1 1 1 1 1 1 1 1 1 1 1 1
0 0 0 0 0 0 0 0 0 1 1 1 1 0 0 1 1 1 1 1 1 1 1 1 1 1 1 1 1 1 1 1 1 1 1 1 1 1 1 1 1 1 1
0 0 0 0 0 0 0 0 0 1 1 1 0 0 0 0 1 1 1 1 1 1 1 1 1 1 1 1 1 1 1 1 1 1 1 1 1 1 1 1 1 1 1
0 0 0 0 0 0 0 0 0 0 0 0 0 0 0 0 0 0 0 0 1 1 1 1 1 1 1 1 1 1 1 1 1 1 1 1 1 1 1 1 1 1 1
0 0 0 0 0 0 0 0 0 0 0 0 0 0 0 0 0 0 0 0 0 0 1 1 1 1 1 1 1 1 1 1 1 1 1 1 1 1 1 1 1 1 1
0 0 0 0 0 0 0 0 0 0 0 0 0 0 0 0 0 0 0 0 0 0 0 1 1 1 1 1 1 1 1 1 1 1 1 1 1 1 1 1 1 1 1
0 0 0 0 0 0 0 0 0 0 0 0 0 0 0 0 0 0 0 0 0 0 0 1 1 1 1 1 1 1 1 1 1 1 1 1 1 1 1 1 1 1 1
0 0 0 0 0 0 0 0 0 0 0 0 0 0 0 0 0 0 0 0 0 0 0 0 1 1 1 1 1 1 1 1 1 1 1 1 1 1 1 1 1 1 1
0 0 0 0 0 0 0 0 0 0 0 0 0 0 0 0 0 0 0 0 0 0 0 0 1 1 1 1 1 1 1 1 1 1 1 1 1 1 1 1 1 1 1
0 0 0 0 0 0 0 0 0 0 0 0 0 0 0 0 0 0 0 0 0 0 0 0 0 1 1 1 1 1 1 1 1 0 0 1 1 1 1 1 1 1 1
0 0 0 0 0 0 0 0 0 0 0 0 0 0 0 0 0 0 0 0 0 0 0 0 0 0 1 1 1 1 1 1 1 0 0 0 0 0 0 0 0 1 1
0 0 0 0 0 0 0 0 0 0 0 0 0 0 0 0 0 0 0 0 0 0 0 0 0 0 0 0 0 1 1 1 0 0 0 0 0 0 0 0 0 0 0
0 0 0 0 0 0 0 0 0 0 0 0 0 0 0 0 0 0 0 0 0 0 0 0 0 0 0 0 0 0 0 0 0 0 0 0 0 0 0 0 0 0 0
0 0 0 0 0 0 0 0 0 0 0 0 0 0 0 0 0 0 0 0 0 0 0 0 0 0 0 0 0 0 0 0 0 0 0 0 0 0 0 0 0 0 0
0 0 0 0 0 0 0 0 0 0 0 0 0 0 0 0 0 0 0 0 0 0 0 0 0 0 0 0 0 0 0 0 0 0 0 0 0 0 0 0 0 0 0
0 0 0 0 0 0 0 0 0 0 0 0 0 0 0 0 0 0 0 0 0 0 0 0 0 0 0 0 0 0 0 0 0 0 0 0 0 0 0 0 0 0 0
0 0 0 0 0 0 0 0 0 0 0 0 0 0 0 0 0 0 0 0 0 0 0 0 0 0 0 0 0 0 0 0 0 0 0 0 0 0 0 0 0 0 0
0 0 0 0 0 0 0 0 0 0 0 0 0 0 0 0 0 0 0 0 0 0 0 0 0 0 0 0 0 0 0 0 0 0 0 0 0 0 0 0 0 0 0
0 0 0 0 0 0 0 0 0 0 0 0 0 0 0 0 0 0 0 0 0 0 0 0 0 0 0 0 0 0 0 0 0 0 0 0 0 0 0 0 0 0 0
0 0 0 0 0 0 0 0 0 0 0 0 0 0 0 0 0 0 0 0 0 0 0 0 0 0 0 0 0 0 0 0 0 0 0 0 0 0 0 0 0 0 0
Wind_Speed
2 2 1 1 2 1 1 1 2 2 2 2 2 3 2 3 3 2 3 8 8 8 8 8 8 8 7 7 8 8 7 7 7 7 7 8 8 9 9 10 10 10 10
2 1 2 1 2 1 1 1 1 1 1 1 2 2 3 2 3 3 3 5 8 8 8 8 9 9 8 8 8 8 8 8 7 7 8 8 9 9 10 10 10 10 10
3 2 2 2 2 1 1 1 2 1 1 1 2 2 2 2 2 3 3 3 4 7 8 8 8 8 9 8 8 8 8 8 8 8 8 8 9 10 10 10 10 10 10
5 3 2 2 3 2 1 1 0 1 1 1 1 1 1 2 2 2 2 3 3 4 6 9 9 8 9 9 9 9 9 9 8 8 8 9 9 9 10 10 10 10 10
5 4 2 2 3 2 2 2 1 1 1 1 1 2 2 1 1 2 2 2 2 4 4 7 10 9 9 10 10 10 10 10 10 9 9 9 10 10 10 10 10 10 10
5 4 3 3 3 2 2 2 2 1 1 1 2 1 1 2 1 2 2 1 1 3 4 5 5 6 9 9 10 10 10 10 10 10 10 11 10 10 10 10 10 10 11
4 4 3 3 3 2 2 3 2 2 1 1 1 1 1 1 1 1 1 1 1 1 3 4 4 4 5 9 9 9 10 11 11 11 11 11 11 10 10 10 11 11 11
4 5 4 3 2 2 3 3 2 2 2 1 1 1 1 1 1 1 2 2 1 1 2 3 4 4 4 4 7 10 9 10 11 11 11 11 11 11 11 11 11 11 11
3 4 4 4 3 3 2 2 2 2 1 2 1 1 1 0 1 1 1 1 1 0 1 1 2 4 4 4 5 8 9 9 10 11 11 12 12 12 12 11 11 11 11
3 2 3 4 3 3 3 3 3 2 2 2 2 1 1 1 0 1 1 0 1 1 1 1 1 2 3 3 5 8 9 9 9 10 11 11 12 13 13 12 12 12 12
1 2 2 3 2 2 2 3 2 2 2 2 1 1 2 2 1 1 0 1 1 0 0 0 0 1 2 3 3 6 9 8 8 8 9 10 12 13 13 13 13 13 13
1 2 1 2 2 2 2 2 2 2 1 1 2 1 1 1 1 1 1 1 1 1 1 0 0 1 2 3 4 6 7 7 7 7 7 8 9 11 13 14 15 15 15
1 2 2 2 3 2 2 2 2 1 1 1 1 1 1 1 1 1 1 1 1 1 0 0 1 1 2 3 3 5 5 6 6 6 6 7 7 9 11 13 15 16 16
2 2 2 2 2 3 3 2 2 2 2 2 2 1 1 1 1 1 1 1 2 2 1 0 1 1 1 2 3 5 5 8 7 7 7 7 8 8 9 11 12 14 15
1 2 1 0 1 1 1 2 2 3 3 2 3 3 2 1 1 1 1 1 1 1 1 1 1 1 1 2 3 2 2 6 8 8 8 8 8 9 9 9 10 11 12
1 0 2 1 1 1 1 2 2 2 2 0 1 0 0 1 2 1 1 1 0 1 1 1 1 0 0 0 3 2 2 7 8 9 9 9 9 9 9 10 10 11 11
2 2 0 2 1 1 2 2 1 1 2 2 1 1 1 1 1 2 1 1 0 0 1 2 2 1 1 1 0 1 1 3 4 9 9 10 10 9 10 10 11 11 12
1 0 2 1 1 1 2 1 1 1 1 1 2 1 1 1 1 1 1 2 1 1 1 2 2 2 2 1 1 2 2 3 3 7 10 10 10 10 10 11 11 11 12
1 2 2 2 1 1 1 1 1 1 1 1 0 1 1 2 1 1 0 1 1 1 0 1 2 1 2 1 1 2 3 2 3 4 7 9 10 11 11 11 11 12 12
2 1 1 1 1 1 1 1 1 1 2 1 1 1 1 2 2 3 2 2 2 2 1 1 2 2 2 2 1 1 2 2 3 3 3 4 7 10 11 12 12 12 13
2 2 1 1 0 1 1 3 3 3 2 2 1 1 3 4 4 2 1 2 2 2 2 1 2 2 2 1 1 1 2 2 3 2 2 3 2 3 5 9 11 12 13
2 2 2 1 0 1 4 3 1 3 4 3 2 1 3 4 4 3 2 2 1 1 1 1 2 2 2 1 1 1 1 2 2 2 1 3 2 3 4 4 8 11 12
3 2 3 2 2 3 5 4 2 2 4 4 3 1 0 3 4 2 3 4 4 5 4 2 2 3 2 2 2 2 2 2 3 3 2 4 3 4 4 4 7 9 10
4 4 4 4 3 4 8 7 5 3 4 4 3 2 1 2 2 1 1 2 2 3 4 3 2 3 2 2 1 2 3 3 4 4 2 3 3 4 4 3 6 8 9
4 4 4 5 5 4 8 9 7 3 4 5 3 2 1 3 3 2 1 2 2 2 3 5 5 5 6 5 3 1 2 2 3 3 2 2 2 3 3 3 4 6 8
4 3 4 5 5 5 8 10 9 3 4 3 2 3 3 4 5 3 0 2 2 3 4 3 3 5 6 6 6 4 2 2 2 3 2 1 2 2 3 3 2 2 3
Wind_Direction
331 339 310 319 300 305 242 221 239 238 241 233 212 213 242 227 222 206 154 161 169 177 179 180 175 176 176 178 178 180 175 169 169 167 162 158 156 152 148 146 142 141 138
339 353 356 351 325 314 316 302 259 218 233 222 230 211 224 234 221 214 178 173 178 179 181 182 180 182 181 180 181 181 177 173 174 170 164 162 160 156 153 151 150 149 146
360 18 1 351 331 323 329 321 325 327 251 236 240 237 218 254 239 226 201 172 175 187 186 182 182 182 184 184 184 182 177 175 175 172 170 167 164 162 159 157 156 155 153
2 11 7 338 340 345 351 311 313 333 306 285 263 255 226 232 243 248 237 181 171 180 186 186 181 181 187 190 189 183 178 176 175 175 172 170 167 165 163 162 163 160 159
357 5 354 335 355 358 357 341 31 360 325 298 265 240 219 201 243 256 263 220 179 162 167 180 181 182 185 189 190 186 181 179 179 178 175 173 169 168 168 168 167 165 166
358 360 349 8 9 1 355 354 5 339 312 271 280 271 228 206 219 235 252 245 207 164 157 168 170 183 186 186 187 185 183 181 184 184 182 178 173 171 173 174 173 174 174
6 2 3 4 5 350 2 358 2 356 345 335 354 331 297 234 216 221 216 221 227 170 153 167 172 173 182 190 187 185 186 185 186 187 187 184 179 178 179 181 183 183 182
17 2 11 359 356 0 11 358 14 12 349 357 54 15 353 342 307 234 205 191 203 147 158 182 174 181 179 169 189 188 189 188 189 189 189 188 185 184 186 189 190 191 191
42 15 2 357 356 18 12 6 28 12 359 339 33 90 77 285 303 289 223 170 160 175 166 187 180 174 173 166 172 189 188 190 193 195 196 195 192 190 192 196 198 198 198
71 42 1 354 356 15 16 4 37 7 17 356 348 5 35 65 87 317 325 355 160 173 197 192 180 167 159 157 154 170 179 185 192 200 202 200 199 199 199 201 203 203 203
101 85 13 342 347 20 21 15 20 20 25 17 348 348 358 4 359 88 18 337 338 290 208 207 164 134 129 132 139 157 170 182 193 204 209 208 207 207 207 207 207 207 209
118 97 23 343 5 31 20 5 356 23 42 15 350 6 25 26 4 24 23 329 319 292 236 188 203 157 132 118 121 133 167 178 190 205 212 216 217 217 216 216 215 215 215
85 70 32 12 23 16 2 2 344 346 47 36 26 28 8 350 13 23 30 348 334 298 302 242 204 151 127 127 122 142 178 187 192 204 215 220 223 224 225 226 225 222 220
75 74 44 30 27 360 1 16 350 354 24 23 26 28 341 348 20 33 64 28 343 321 317 288 58 122 103 115 140 168 193 196 197 206 217 225 229 230 230 231 234 233 230
86 71 28 237 114 11 357 19 8 23 13 32 25 16 11 352 13 29 40 53 87 358 319 348 35 56 104 116 149 203 206 198 204 211 217 224 229 233 234 234 235 235 234
63 37 303 293 155 176 109 59 13 22 7 22 185 171 320 2 15 360 355 338 83 127 295 319 299 288 51 162 186 222 226 206 215 220 222 225 228 232 235 235 234 233 233
217 183 200 334 2 58 84 83 2 22 359 348 354 83 96 100 44 340 347 350 342 123 252 302 325 337 341 310 203 267 258 225 226 224 221 225 228 232 236 237 235 232 231
285 160 131 299 327 55 73 78 346 341 328 342 348 14 25 78 69 342 2 341 315 255 200 284 311 327 325 311 289 275 267 252 239 222 221 225 229 232 236 238 236 234 232
226 242 167 206 214 113 147 192 215 272 272 245 265 27 30 58 21 6 10 310 305 310 239 260 285 300 294 293 319 297 288 285 274 238 226 229 232 234 236 237 237 236 235
191 261 262 214 189 107 40 360 359 347 313 299 171 145 106 69 45 16 5 355 349 351 336 304 284 287 285 286 276 281 304 303 293 293 278 252 238 235 236 237 238 238 236
205 188 241 269 248 110 64 44 8 338 326 319 299 141 128 126 113 83 33 357 357 347 327 308 295 299 294 308 284 267 284 286 281 264 279 274 257 243 236 240 241 241 239
230 186 211 225 244 115 123 105 44 331 323 316 300 167 148 148 157 175 213 243 260 284 304 315 303 299 294 297 304 298 292 312 299 299 308 286 273 262 252 237 233 233 235
215 211 222 222 211 183 171 175 193 268 295 301 306 320 134 139 152 186 239 241 244 241 237 251 283 286 297 311 327 319 308 290 269 275 301 279 273 267 262 258 245 235 231
205 204 213 218 221 210 196 199 204 233 260 268 274 269 234 133 112 87 300 271 253 233 229 230 238 264 287 314 315 290 281 284 278 269 232 253 269 267 271 266 256 242 237
206 202 199 207 219 217 201 199 193 233 251 247 240 224 164 131 117 68 355 315 310 301 245 231 232 249 263 274 266 291 289 290 292 286 245 230 274 286 278 269 268 254 248
202 209 215 208 211 208 198 196 194 226 255 249 220 179 151 143 141 119 37 334 333 329 336 323 279 268 257 258 245 218 233 266 291 297 307 319 299 328 312 293 295 290 267